Weather Service Report


697 
ASUS45 KBOU 231807
RWRCO 

WEATHER ROUNDUP FOR COLORADO
NATIONAL WEATHER SERVICE DENVER/BOULDER CO
1200 PM MDT THU OCT 23 2014

NOTE: "FAIR" INDICATES FEW OR NO CLOUDS BELOW 12000 FEET WITH NO
SIGNIFICANT WEATHER AND/OR OBSTRUCTIONS TO VISIBILITY.

COZ001>005-013-030-031-231900-
...NORTHWEST COLORADO...
  
CITY           SKY/WX    TMP DP  RH WIND       PRES   REMARKS
CRAIG          SUNNY     60  37  42 VRB3      30.27F                  
HAYDEN         SUNNY     55  34  44 E5        30.28F                  
MEEKER         SUNNY     61  38  42 N3        30.27F                  
MOUNT WERNER   NOT AVBL                                               
STEAMBOAT SPGS SUNNY     53  36  53 CALM      30.29F                  
WALDEN         MOSUNNY   54  27  35 S20G25    30.29F                  
$$

COZ006>008-011-231900-
...WEST CENTRAL VALLEYS...
  
CITY           SKY/WX    TMP DP  RH WIND       PRES   REMARKS
GRAND JUNCTION SUNNY     63  38  39 SE8       30.25F                  
MONTROSE       SUNNY     62  36  37 CALM      30.31F                  
EAGLE          MOSUNNY   48  39  71 CALM      30.35F                  
RIFLE          SUNNY     55  39  54 MISG      30.29F                  
DELTA          SUNNY     63  34  33 CALM      30.28F                  
NUCLA          SUNNY     61  36  39 NW3       30.35S                  
$$

COZ017>023-064>068-231900-
...SOUTHWEST COLORADO...
  
CITY           SKY/WX    TMP DP  RH WIND       PRES   REMARKS
DURANGO        SUNNY     59  38  45 CALM      30.35S                  
CORTEZ         SUNNY     64  37  36 VRB5      30.31F                  
PAGOSA SPRINGS SUNNY     57  34  41 S3        30.38F                  
TELLURIDE      SUNNY     56  24  29 CALM      30.46S                  
WOLF CREEK PAS SUNNY     41  27  56 SW9         N/A                   
$$

COZ009-010-012-014-032>034-037-058>063-231900-
...CENTRAL COLORADO...
  
CITY           SKY/WX    TMP DP  RH WIND       PRES   REMARKS
ASPEN          SUNNY     57  33  40 NW6       30.34F                  
BUENA VISTA    SUNNY     58  27  30 CALM      30.33F                  
COPPER MTN     SUNNY     43  27  52 SW9G16    30.52S                  
BERTHOUD PASS  FAIR      32  30  93 W21G31    30.52R WCI  20          
COTTONWOOD PAS SUNNY     54  23  30 NW6G18    30.42F                  
GUNNISON       SUNNY     48  34  57 CALM      30.42F                  
KREMMLING      MOSUNNY   41  34  75 CALM        N/A                   
LEADVILLE      SUNNY     48  27  44 NW15G23   30.41F                  
MONARCH PASS   SUNNY     34  30  86 W18G26    30.64S WCI  23          
SALIDA         SUNNY     59  30  32 N6        30.39F                  
SUNLIGHT       SUNNY     48  32  53 CALM      30.51S                  
WILKERSON PASS NOT AVBL                                               
$$

COZ069>075-231900-
...SAN LUIS VALLEY/SANGRE DE CRISTO MOUNTAINS...
  
CITY           SKY/WX    TMP DP  RH WIND       PRES   REMARKS
ALAMOSA        SUNNY     58  30  34 VRB3      30.36F                  
LA VETA PASS   SUNNY     48  30  49 S10G25    30.45S                  
SAGUACHE       SUNNY     55  32  41 S7        30.37F                  
$$

COZ035-036-038>040-231900-
...NORTHERN COLORADO FRONT RANGE...
  
CITY           SKY/WX    TMP DP  RH WIND       PRES   REMARKS
DENVER INTL AP PTSUNNY   69  27  20 SW10      30.15F                  
DMNS CITY PARK   N/A     71  29  20 SW5       30.14F                  
AURORA         MOSUNNY   68  28  22 SW7       30.18F                  
FRONT RANGE AP MOSUNNY   72  30  21 SW7G16    30.18F                  
ERIE MUNI ARPT MOSUNNY   74  29  19 W10G16    30.14F                  
BOULDER MUN AP MOSUNNY   68  30  24 W16G23    30.15S                  
CENTENNIAL     MOSUNNY   67  28  23 SW9       30.19F                  
BROOMFIELD     PTSUNNY   70  28  21 W7G14     30.17F                  
FORT COLLINS   MOSUNNY   64  39  39 CALM      30.15F                  
LONGMONT       MOSUNNY   73  34  23 S6        30.15S                  
$$

COZ041-046-047-076>085-087-088-231900-
...PIKES PEAK/PALMER DIVIDE AND SOUTHERN FOOTHILLS...
  
CITY           SKY/WX    TMP DP  RH WIND       PRES   REMARKS
COLO. SPRINGS  MOSUNNY   67  26  21 VRB6      30.23F                  
A. F. ACADEMY  MOSUNNY   66  28  24 SE8       30.23F                  
ELLICOTT       NOT AVBL                                               
FALCON         SUNNY     66  25  21 SW7       30.27F                  
FORT CARSON    SUNNY     67  31  26 VRB5      30.21F                  
LIMON          SUNNY     67  29  24 W7        30.18F                  
MONUMENT HILL  SUNNY     64  23  20 NW3       30.25F                  
TRINIDAD       SUNNY     70  31  23 NE6       30.22F                  
$$

COZ042>045-048>051-090-091-231900-
...NORTHEAST COLORADO...
  
CITY           SKY/WX    TMP DP  RH WIND       PRES   REMARKS
GREELEY ARPT   MOSUNNY   63  39  42 CALM      30.16S                  
AKRON          PTSUNNY   64  42  44 SW7       30.14F                  
BURLINGTON     SUNNY     70  44  39 S8        30.15F                  
WRAY           MOSUNNY   75  42  30 S7        30.11F                  
STERLING       PTSUNNY   66  45  45 SW10      30.11F                  
HOLYOKE        MOSUNNY   73  41  31 W7        30.10F                  
FORT MORGAN    PTSUNNY   65  39  38 SW6       30.15F                  
$$

COZ086-089-092>099-231900-
...SOUTHEAST COLORADO...
  
CITY           SKY/WX    TMP DP  RH WIND       PRES   REMARKS
PUEBLO         SUNNY     72  31  22 W5        30.16F                  
LA JUNTA       SUNNY     69  46  43 VRB3      30.16F                  
LAMAR          SUNNY     70  49  47 CALM      30.12F                  
SPRINGFIELD      N/A     72  47  40 NE7       30.15F                  
$$

Return to Home page


Western Regional Climate Center, wrcc@dri.edu